Time,TemperatureF,DewpointF,PressureIn,WindDirection,WindDirectionDegrees,WindSpeedMPH,WindSpeedGustMPH,Humidity,HourlyPrecipIn,Conditions,Clouds,dailyrainin,SolarRadiationWatts/m^2,SoftwareType,DateUTC
2013-04-22 00:01:00,62.0,61.0,-100.00,East,95,2.0,4.0,97,0.00,,,0.85,0.000000,,2013-04-22 10:01:00,
2013-04-22 00:23:00,62.0,61.0,-100.00,East,95,2.0,4.0,97,0.00,,,0.85,0.000000,,2013-04-22 10:23:00,
2013-04-22 00:32:00,62.0,61.0,-100.00,East,95,2.0,4.0,97,0.00,,,0.85,0.000000,,2013-04-22 10:32:00,
2013-04-22 00:42:00,62.0,61.0,-100.00,East,95,2.0,4.0,97,0.00,,,0.85,0.000000,,2013-04-22 10:42:00,
2013-04-22 00:52:00,62.0,61.0,-100.00,East,95,2.0,4.0,97,0.00,,,0.85,0.000000,,2013-04-22 10:52:00,
2013-04-22 01:01:00,62.0,61.0,-100.00,NNE,30,0.0,3.0,97,0.00,,,0.85,0.000000,,2013-04-22 11:01:00,
2013-04-22 01:22:00,62.0,61.0,-100.00,NNE,30,0.0,3.0,97,0.00,,,0.85,0.000000,,2013-04-22 11:22:00,
2013-04-22 01:33:00,62.0,61.0,-100.00,NNE,30,0.0,3.0,97,0.00,,,0.85,0.000000,,2013-04-22 11:33:00,
2013-04-22 01:42:00,62.0,61.0,-100.00,NNE,30,0.0,3.0,97,0.00,,,0.85,0.000000,,2013-04-22 11:42:00,
2013-04-22 01:52:00,62.0,61.0,-100.00,NNE,30,0.0,3.0,97,0.00,,,0.85,0.000000,,2013-04-22 11:52:00,
2013-04-22 02:01:00,62.0,61.0,-100.00,East,99,0.0,5.0,97,0.00,,,0.85,0.000000,,2013-04-22 12:01:00,
2013-04-22 02:32:00,62.0,61.0,-100.00,East,99,0.0,5.0,97,0.00,,,0.85,0.000000,,2013-04-22 12:32:00,
2013-04-22 02:42:00,62.0,61.0,-100.00,East,99,0.0,5.0,97,0.00,,,0.85,0.000000,,2013-04-22 12:42:00,
2013-04-22 02:52:00,62.0,61.0,-100.00,East,99,0.0,5.0,97,0.00,,,0.85,0.000000,,2013-04-22 12:52:00,
2013-04-22 03:01:00,62.0,61.0,-100.00,ENE,78,3.0,5.0,97,0.00,,,0.85,0.000000,,2013-04-22 13:01:00,
2013-04-22 03:32:00,62.0,61.0,-100.00,ENE,78,3.0,5.0,97,0.00,,,0.85,0.000000,,2013-04-22 13:32:00,
2013-04-22 03:42:00,62.0,61.0,-100.00,ENE,78,3.0,5.0,97,0.00,,,0.85,0.000000,,2013-04-22 13:42:00,
2013-04-22 03:52:00,62.0,61.0,-100.00,ENE,78,3.0,5.0,97,0.00,,,0.85,0.000000,,2013-04-22 13:52:00,
2013-04-22 04:01:00,61.0,60.0,-100.00,NE,38,1.0,4.0,97,0.00,,,0.73,0.000000,,2013-04-22 14:01:00,
2013-04-22 04:22:00,61.0,60.0,-100.00,NE,38,1.0,4.0,97,0.00,,,0.73,0.000000,,2013-04-22 14:22:00,
2013-04-22 04:33:00,61.0,60.0,-100.00,NE,38,1.0,4.0,97,0.00,,,0.73,0.000000,,2013-04-22 14:33:00,
2013-04-22 04:42:00,61.0,60.0,-100.00,NE,38,1.0,4.0,97,0.00,,,0.73,0.000000,,2013-04-22 14:42:00,
2013-04-22 04:52:00,61.0,60.0,-100.00,NE,38,1.0,4.0,97,0.00,,,0.73,0.000000,,2013-04-22 14:52:00,
2013-04-22 05:01:00,61.0,60.0,-100.00,WNW,297,0.0,5.0,98,0.00,,,0.54,0.000000,,2013-04-22 15:01:00,
2013-04-22 05:22:00,61.0,60.0,-100.00,WNW,297,0.0,5.0,98,0.00,,,0.54,0.000000,,2013-04-22 15:22:00,
2013-04-22 05:33:00,61.0,60.0,-100.00,WNW,297,0.0,5.0,98,0.00,,,0.54,0.000000,,2013-04-22 15:33:00,
2013-04-22 05:43:00,61.0,60.0,-100.00,WNW,297,0.0,5.0,98,0.00,,,0.54,0.000000,,2013-04-22 15:43:00,
2013-04-22 05:53:00,61.0,60.0,-100.00,WNW,297,0.0,5.0,98,0.00,,,0.54,0.000000,,2013-04-22 15:53:00,
2013-04-22 06:01:00,61.0,60.0,-100.00,North,354,3.0,5.0,96,0.00,,,0.41,0.000000,,2013-04-22 16:01:00,
2013-04-22 06:33:00,61.0,60.0,-100.00,North,354,3.0,5.0,96,0.00,,,0.41,0.000000,,2013-04-22 16:33:00,
2013-04-22 06:42:00,61.0,60.0,-100.00,North,354,3.0,5.0,96,0.00,,,0.41,0.000000,,2013-04-22 16:42:00,
2013-04-22 06:52:00,61.0,60.0,-100.00,North,354,3.0,5.0,96,0.00,,,0.41,0.000000,,2013-04-22 16:52:00,
2013-04-22 07:01:00,64.0,61.0,-100.00,NNW,341,3.0,6.0,89,0.00,,,0.34,92.000000,,2013-04-22 17:01:00,
2013-04-22 07:32:00,64.0,61.0,-100.00,NNW,341,3.0,6.0,89,0.00,,,0.34,92.000000,,2013-04-22 17:32:00,
2013-04-22 07:43:00,64.0,61.0,-100.00,NNW,341,3.0,6.0,89,0.00,,,0.34,92.000000,,2013-04-22 17:43:00,
2013-04-22 07:52:00,64.0,61.0,-100.00,NNW,341,3.0,6.0,89,0.00,,,0.34,92.000000,,2013-04-22 17:52:00,
2013-04-22 08:01:00,63.0,61.0,-100.00,ESE,118,3.0,6.0,93,0.00,,,0.23,108.000000,,2013-04-22 18:01:00,
2013-04-22 08:32:00,63.0,61.0,-100.00,ESE,118,3.0,6.0,93,0.00,,,0.23,108.000000,,2013-04-22 18:32:00,
2013-04-22 08:42:00,63.0,61.0,-100.00,ESE,118,3.0,6.0,93,0.00,,,0.23,108.000000,,2013-04-22 18:42:00,
2013-04-22 08:52:00,63.0,61.0,-100.00,ESE,118,3.0,6.0,93,0.00,,,0.23,108.000000,,2013-04-22 18:52:00,
2013-04-22 09:01:00,66.0,60.0,-100.00,SSE,157,2.0,5.0,81,0.00,,,-99.99,227.000000,,2013-04-22 19:01:00,
2013-04-22 09:22:00,66.0,60.0,-100.00,SSE,157,2.0,5.0,81,0.00,,,-99.99,227.000000,,2013-04-22 19:22:00,
2013-04-22 09:32:00,66.0,60.0,-100.00,SSE,157,2.0,5.0,81,0.00,,,-99.99,227.000000,,2013-04-22 19:32:00,
2013-04-22 09:42:00,66.0,60.0,-100.00,SSE,157,2.0,5.0,81,0.00,,,-99.99,227.000000,,2013-04-22 19:42:00,
2013-04-22 09:52:00,66.0,60.0,-100.00,SSE,157,2.0,5.0,81,0.00,,,-99.99,227.000000,,2013-04-22 19:52:00,
2013-04-22 10:01:00,66.0,63.0,-100.00,SSE,153,6.0,10.0,89,0.00,,,0.05,412.000000,,2013-04-22 20:01:00,
2013-04-22 10:32:00,66.0,63.0,-100.00,SSE,153,6.0,10.0,89,0.00,,,0.05,412.000000,,2013-04-22 20:32:00,
2013-04-22 10:42:00,66.0,63.0,-100.00,SSE,153,6.0,10.0,89,0.00,,,0.05,412.000000,,2013-04-22 20:42:00,
2013-04-22 10:52:00,66.0,63.0,-100.00,SSE,153,6.0,10.0,89,0.00,,,0.05,412.000000,,2013-04-22 20:52:00,
2013-04-22 11:01:00,68.0,61.0,-100.00,SSE,165,7.0,11.0,77,0.00,,,0.03,307.000000,,2013-04-22 21:01:00,
2013-04-22 11:33:00,68.0,61.0,-100.00,SSE,165,7.0,11.0,77,0.00,,,0.03,307.000000,,2013-04-22 21:33:00,
2013-04-22 11:43:00,68.0,61.0,-100.00,SSE,165,7.0,11.0,77,0.00,,,0.03,307.000000,,2013-04-22 21:43:00,
2013-04-22 11:53:00,68.0,61.0,-100.00,SSE,165,7.0,11.0,77,0.00,,,0.03,307.000000,,2013-04-22 21:53:00,
2013-04-22 12:01:00,71.0,61.0,-100.00,SE,138,7.0,13.0,70,0.00,,,0.02,782.000000,,2013-04-22 22:01:00,
2013-04-22 12:33:00,71.0,61.0,-100.00,SE,138,7.0,13.0,70,0.00,,,0.02,782.000000,,2013-04-22 22:33:00,
2013-04-22 12:42:00,71.0,61.0,-100.00,SE,138,7.0,13.0,70,0.00,,,0.02,782.000000,,2013-04-22 22:42:00,
2013-04-22 12:52:00,71.0,61.0,-100.00,SE,138,7.0,13.0,70,0.00,,,0.02,782.000000,,2013-04-22 22:52:00,
2013-04-22 13:01:00,70.0,63.0,-100.00,South,176,7.0,14.0,79,0.00,,,0.01,740.000000,,2013-04-22 23:01:00,
2013-04-22 13:33:00,70.0,63.0,-100.00,South,176,7.0,14.0,79,0.00,,,0.01,740.000000,,2013-04-22 23:33:00,
2013-04-22 13:42:00,70.0,63.0,-100.00,South,176,7.0,14.0,79,0.00,,,0.01,740.000000,,2013-04-22 23:42:00,
2013-04-22 13:52:00,70.0,63.0,-100.00,South,176,7.0,14.0,79,0.00,,,0.01,740.000000,,2013-04-22 23:52:00,
2013-04-22 14:01:00,69.0,62.0,-100.00,SSE,151,8.0,15.0,79,0.00,,,0.00,678.000000,,2013-04-23 00:01:00,
2013-04-22 14:22:00,69.0,62.0,-100.00,SSE,151,8.0,15.0,79,0.00,,,0.00,678.000000,,2013-04-23 00:22:00,
2013-04-22 14:32:00,69.0,62.0,-100.00,SSE,151,8.0,15.0,79,0.00,,,0.00,678.000000,,2013-04-23 00:32:00,
2013-04-22 14:42:00,69.0,62.0,-100.00,SSE,151,8.0,15.0,79,0.00,,,0.00,678.000000,,2013-04-23 00:42:00,
2013-04-22 14:52:00,69.0,62.0,-100.00,SSE,151,8.0,15.0,79,0.00,,,0.00,678.000000,,2013-04-23 00:52:00,
2013-04-22 15:01:00,69.0,62.0,-100.00,South,183,7.0,14.0,79,0.00,,,0.00,468.000000,,2013-04-23 01:01:00,
2013-04-22 15:32:00,69.0,62.0,-100.00,South,183,7.0,14.0,79,0.00,,,0.00,468.000000,,2013-04-23 01:32:00,
2013-04-22 15:42:00,69.0,62.0,-100.00,South,183,7.0,14.0,79,0.00,,,0.00,468.000000,,2013-04-23 01:42:00,
2013-04-22 15:52:00,69.0,62.0,-100.00,South,183,7.0,14.0,79,0.00,,,0.00,468.000000,,2013-04-23 01:52:00,
2013-04-22 16:01:00,70.0,64.0,-100.00,SSE,158,6.0,13.0,82,0.00,,,0.00,533.000000,,2013-04-23 02:01:00,
2013-04-22 16:33:00,70.0,64.0,-100.00,SSE,158,6.0,13.0,82,0.00,,,0.00,533.000000,,2013-04-23 02:33:00,
2013-04-22 16:42:00,70.0,64.0,-100.00,SSE,158,6.0,13.0,82,0.00,,,0.00,533.000000,,2013-04-23 02:42:00,
2013-04-22 16:52:00,70.0,64.0,-100.00,SSE,158,6.0,13.0,82,0.00,,,0.00,533.000000,,2013-04-23 02:52:00,
2013-04-22 17:01:00,68.0,65.0,-100.00,SSE,150,6.0,11.0,89,0.00,,,0.00,371.000000,,2013-04-23 03:01:00,
2013-04-22 17:33:00,68.0,65.0,-100.00,SSE,150,6.0,11.0,89,0.00,,,0.00,371.000000,,2013-04-23 03:33:00,
2013-04-22 17:43:00,68.0,65.0,-100.00,SSE,150,6.0,11.0,89,0.00,,,0.00,371.000000,,2013-04-23 03:43:00,
2013-04-22 17:53:00,68.0,65.0,-100.00,SSE,150,6.0,11.0,89,0.00,,,0.00,371.000000,,2013-04-23 03:53:00,
2013-04-22 18:01:00,66.0,63.0,-100.00,South,171,4.0,9.0,91,0.00,,,0.00,222.000000,,2013-04-23 04:01:00,
2013-04-22 18:33:00,66.0,63.0,-100.00,South,171,4.0,9.0,91,0.00,,,0.00,222.000000,,2013-04-23 04:33:00,
2013-04-22 18:43:00,66.0,63.0,-100.00,South,171,4.0,9.0,91,0.00,,,0.00,222.000000,,2013-04-23 04:43:00,
2013-04-22 18:53:00,66.0,63.0,-100.00,South,171,4.0,9.0,91,0.00,,,0.00,222.000000,,2013-04-23 04:53:00,
2013-04-22 19:01:00,64.0,63.0,-100.00,SSE,151,4.0,7.0,97,0.00,,,0.00,16.000000,,2013-04-23 05:01:00,
2013-04-22 19:22:00,64.0,63.0,-100.00,SSE,151,4.0,7.0,97,0.00,,,0.00,16.000000,,2013-04-23 05:22:00,
2013-04-22 19:32:00,64.0,63.0,-100.00,SSE,151,4.0,7.0,97,0.00,,,0.00,16.000000,,2013-04-23 05:32:00,
2013-04-22 19:42:00,64.0,63.0,-100.00,SSE,151,4.0,7.0,97,0.00,,,0.00,16.000000,,2013-04-23 05:42:00,
2013-04-22 19:52:00,64.0,63.0,-100.00,SSE,151,4.0,7.0,97,0.00,,,0.00,16.000000,,2013-04-23 05:52:00,
2013-04-22 20:01:00,63.0,62.0,-100.00,ESE,110,2.0,7.0,98,0.00,,,0.00,0.000000,,2013-04-23 06:01:00,
2013-04-22 20:22:00,63.0,62.0,-100.00,ESE,110,2.0,7.0,98,0.00,,,0.00,0.000000,,2013-04-23 06:22:00,
2013-04-22 20:33:00,63.0,62.0,-100.00,ESE,110,2.0,7.0,98,0.00,,,0.00,0.000000,,2013-04-23 06:33:00,
2013-04-22 20:42:00,63.0,62.0,-100.00,ESE,110,2.0,7.0,98,0.00,,,0.00,0.000000,,2013-04-23 06:42:00,
2013-04-22 20:52:00,63.0,62.0,-100.00,ESE,110,2.0,7.0,98,0.00,,,0.00,0.000000,,2013-04-23 06:52:00,
2013-04-22 21:01:00,62.0,60.0,-100.00,East,93,0.0,4.0,94,0.00,,,0.00,0.000000,,2013-04-23 07:01:00,
2013-04-22 21:22:00,62.0,60.0,-100.00,East,93,0.0,4.0,94,0.00,,,0.00,0.000000,,2013-04-23 07:22:00,
2013-04-22 21:32:00,62.0,60.0,-100.00,East,93,0.0,4.0,94,0.00,,,0.00,0.000000,,2013-04-23 07:32:00,
2013-04-22 21:42:00,62.0,60.0,-100.00,East,93,0.0,4.0,94,0.00,,,0.00,0.000000,,2013-04-23 07:42:00,
2013-04-22 21:52:00,62.0,60.0,-100.00,East,93,0.0,4.0,94,0.00,,,0.00,0.000000,,2013-04-23 07:52:00,
2013-04-22 22:01:00,61.0,59.0,-100.00,East,80,3.0,4.0,94,0.00,,,0.00,0.000000,,2013-04-23 08:01:00,
2013-04-22 22:32:00,61.0,59.0,-100.00,East,80,3.0,4.0,94,0.00,,,0.00,0.000000,,2013-04-23 08:32:00,
2013-04-22 22:42:00,61.0,59.0,-100.00,East,80,3.0,4.0,94,0.00,,,0.00,0.000000,,2013-04-23 08:42:00,
2013-04-22 22:52:00,61.0,59.0,-100.00,East,80,3.0,4.0,94,0.00,,,0.00,0.000000,,2013-04-23 08:52:00,
2013-04-22 23:01:00,62.0,61.0,-100.00,NE,41,1.0,5.0,98,0.00,,,0.00,0.000000,,2013-04-23 09:01:00,
2013-04-22 23:33:00,62.0,61.0,-100.00,NE,41,1.0,5.0,98,0.00,,,0.00,0.000000,,2013-04-23 09:33:00,
2013-04-22 23:43:00,62.0,61.0,-100.00,NE,41,1.0,5.0,98,0.00,,,0.00,0.000000,,2013-04-23 09:43:00,
2013-04-22 23:53:00,62.0,61.0,-100.00,NE,41,1.0,5.0,98,0.00,,,0.00,0.000000,,2013-04-23 09:53:00,